Weather History for KFNB - February, 2014

Change the Weather History Date:

Thursday, February 6, 2014

  Actual Average Record
Temperature  
Mean Temperature -1 °F -  
Max Temperature 7 °F 33 °F 68 °F (2009)
Min Temperature -9 °F 14 °F -12 °F (1985)
Degree Days  
Heating Degree Days 66    
Moisture  
Dew Point -9 °F    
Average Humidity 70    
Maximum Humidity 82    
Minimum Humidity 58    
Precipitation  
Precipitation 0.00 in - - ()
Sea Level Pressure  
Sea Level Pressure 30.64 in    
Wind  
Wind Speed 6 mph (WNW)    
Max Wind Speed 9 mph    
Max Gust Speed -    
Visibility 10 miles    
Events      
Averages and records for this station are not official NWS values.
T = Trace of Precipitation, MM = Missing Value Source: NWS Daily Summary

Daily Weather History Graph

Daily Weather History Graph

Search for Another Location

Airport or City:

Trip Planner

Search our weather history database for the weather conditions in past years. The results will help you decide how hot, cold, wet, or windy it might be!

Date:

Astronomy

Feb. 06, 2014 Rise Set
Actual Time 7:25 AM CST 5:47 PM CST
Civil Twilight 6:57 AM CST 6:15 PM CST
Nautical Twilight 6:25 AM CST 6:48 PM CST
Astronomical Twilight 5:53 AM CST 7:19 PM CST
Moon 11:20 AM CST (2/6) 12:42 AM CST (2/6)
Length of Visible Light 11h 18m
Length of Day
10h 21m
Waxing Crescent, 49% of the Moon is Illuminated
Feb 6
Waxing Crescent
Feb 6
First Quarter
Feb 14
Full
Feb 22
Last Quarter
Mar 1
New

Hourly Weather History & Observations

Time (CST) Temp. Windchill Dew Point Humidity Pressure Visibility Wind Dir Wind Speed Gust Speed Precip Events Conditions
12:53 AM -5.1 °F -19.1 °F -11.0 °F 76% 30.70 in 10.0 mi NW 6.9 mph - N/A   Clear
1:53 AM -6.0 °F -18.6 °F -11.0 °F 79% 30.71 in 10.0 mi WNW 5.8 mph - N/A   Clear
2:53 AM -9.0 °F -23.8 °F -14.1 °F 79% 30.70 in 10.0 mi NW 6.9 mph - N/A   Clear
3:53 AM -8.0 °F -21.0 °F -14.1 °F 75% 30.70 in 10.0 mi WNW 5.8 mph - N/A   Clear
4:53 AM -9.0 °F -25.2 °F -14.1 °F 79% 30.71 in 10.0 mi WNW 8.1 mph - N/A   Clear
5:53 AM -9.9 °F -24.9 °F -15.0 °F 78% 30.71 in 10.0 mi WNW 6.9 mph - N/A   Clear
6:53 AM -9.9 °F -21.5 °F -15.0 °F 78% 30.70 in 10.0 mi WNW 4.6 mph - N/A   Clear
7:53 AM -9.9 °F -23.4 °F -15.0 °F 78% 30.71 in 10.0 mi WNW 5.8 mph - N/A   Clear
8:53 AM -7.1 °F -15.9 °F -14.1 °F 72% 30.72 in 10.0 mi NW 3.5 mph - N/A   Clear
9:53 AM -4.0 °F -14.6 °F -11.9 °F 69% 30.71 in 10.0 mi NW 4.6 mph - 0.00 in   Clear
10:53 AM -0.0 °F -14.2 °F -9.0 °F 66% 30.71 in 10.0 mi WNW 8.1 mph - 0.00 in   Partly Cloudy
11:53 AM 1.9 °F -10.6 °F -7.1 °F 66% 30.68 in 10.0 mi West 6.9 mph - N/A   Mostly Cloudy
12:53 PM 3.9 °F -10.4 °F -6.0 °F 64% 30.65 in 10.0 mi WNW 9.2 mph - N/A   Overcast
1:53 PM 6.1 °F -5.6 °F -5.1 °F 60% 30.62 in 10.0 mi WNW 6.9 mph - 0.00 in   Mostly Cloudy
2:53 PM 7.0 °F -6.6 °F -5.1 °F 58% 30.61 in 10.0 mi WNW 9.2 mph - N/A   Clear
3:53 PM 7.0 °F -3.3 °F -5.1 °F 58% 30.59 in 10.0 mi WNW 5.8 mph - N/A   Overcast
4:53 PM 6.1 °F -2.8 °F -4.0 °F 63% 30.57 in 10.0 mi West 4.6 mph - N/A   Mostly Cloudy
5:53 PM 5.0 °F -4.1 °F -5.1 °F 63% 30.55 in 10.0 mi West 4.6 mph - N/A   Overcast
6:53 PM 5.0 °F -5.6 °F -5.1 °F 63% 30.56 in 10.0 mi WSW 5.8 mph - N/A   Overcast
7:53 PM 5.0 °F -2.1 °F -5.1 °F 63% 30.55 in 10.0 mi WSW 3.5 mph - N/A   Overcast
8:53 PM 1.9 °F -9.2 °F -6.0 °F 69% 30.55 in 10.0 mi WSW 5.8 mph - N/A   Clear
9:53 PM 1.9 °F -9.2 °F -6.0 °F 69% 30.55 in 10.0 mi WSW 5.8 mph - N/A   Partly Cloudy
10:53 PM -0.0 °F -11.6 °F -7.1 °F 72% 30.54 in 10.0 mi WSW 5.8 mph - N/A   Overcast
11:53 PM -2.9 °F - -7.1 °F 82% 30.51 in 10.0 mi Calm Calm - N/A   Overcast